Tracking 20093 objects as of 16-Dec-2019
HD Live streaming from Space Station
objects crossing your sky now

COSMOS 2251 DEB

Track COSMOS 2251 DEB now!
10-day predictions


NORAD ID: 34908
Int'l Code: 1993-036ADD
Perigee: 763.2 km
Apogee: 832.6 km
Inclination: 74.1 °
Period: 100.7 minutes
Semi major axis: 7168 km
RCS: 0.0114 m2 (small)
Launch date: June 16, 1993
Source: Commonwealth of Independent States (former USSR) (CIS)
Launch site: PLESETSK MISSILE AND SPACE COMPLEX (PKMTR)

Note: This is SATELLITE DEBRIS
aabbcc
Your satellite tracking list
Your tracking list is empty




NASA's NSSDC Master Catalog

Two Line Element Set (TLE):
1 34908U 93036ADD 19349.95160245  .00000192  00000-0  82947-4 0  9999
2 34908  74.0620  53.0359 0048395 257.8434 275.9385 14.30302305559371
Source of the keplerian elements: AFSPC